Main page
METAR-TAF:

METAR-TAF

Airports :

Algeciras, Spain

Algeciras Heliport

latitude: 36-07-44N, longitude: 05-26-28W, elevation: 30 m

Current weather observation

The report was made 17 minutes ago, at 03:30 UTC
Wind 5 kt from the North/Northwest, varying between Northwest and Northeast
Temperature 19°C
Humidity 68%
Pressure 1019 hPa
Visibility 10 km or more
no clouds below 1500 m and no cumulonimbus

METAR: LEAG 200330Z AUTO 34005KT 320V040 CAVOK 19/13 Q1019

Time: 05:47 (03:47 UTC)


TAF: missing

Weather observations and forecasts of more than 4000 airports (METAR and TAF reports).

The available stations are represented by yellow and red dots on the map.

Hover mouse over dot to see the name of the station.

Then click to see weather observations and forecasts.

To change the map : click on the green buttons with a black cross to zoom in, on the green button with a dash to zoom out, or on the green arrows for adjacent maps.


METAR-TAF: